TimeMDT,TemperatureF,Dew PointF,Humidity,Sea Level PressureIn,VisibilityMPH,Wind Direction,Wind SpeedMPH,Gust SpeedMPH,PrecipitationIn,Events,Conditions,WindDirDegrees,DateUTC
12:56 AM,45.0,34.0,65,29.83,10.0,SW,6.9,-,N/A,,Mostly Cloudy,220,2013-05-07 06:56:00
1:56 AM,43.9,32.0,63,29.83,10.0,SE,6.9,-,N/A,,Scattered Clouds,130,2013-05-07 07:56:00
2:56 AM,41.0,31.1,68,29.83,10.0,Variable,4.6,-,N/A,,Clear,0,2013-05-07 08:56:00
3:56 AM,36.9,30.0,76,29.83,10.0,East,5.8,-,N/A,,Clear,90,2013-05-07 09:56:00
4:56 AM,34.9,29.1,79,29.83,10.0,Calm,Calm,-,N/A,,Clear,0,2013-05-07 10:56:00
5:56 AM,34.9,29.1,79,29.85,10.0,Calm,Calm,-,N/A,,Scattered Clouds,0,2013-05-07 11:56:00
6:56 AM,36.0,29.1,76,29.87,10.0,SSE,6.9,-,N/A,,Mostly Cloudy,150,2013-05-07 12:56:00
7:56 AM,43.0,32.9,68,29.84,10.0,South,3.5,-,N/A,,Mostly Cloudy,190,2013-05-07 13:56:00
8:56 AM,47.8,34.0,59,29.84,10.0,South,3.5,-,N/A,,Clear,180,2013-05-07 14:56:00
9:56 AM,54.0,36.9,52,29.82,10.0,Calm,Calm,-,N/A,,Clear,0,2013-05-07 15:56:00
10:56 AM,57.9,36.0,44,29.81,10.0,Variable,6.9,-,N/A,,Clear,0,2013-05-07 16:56:00
11:56 AM,63.0,34.0,34,29.77,10.0,North,6.9,-,N/A,,Clear,360,2013-05-07 17:56:00
12:29 PM,62.6,32.0,32,29.96,10.0,North,9.2,-,N/A,,Mostly Cloudy,350,2013-05-07 18:29:00
1:56 PM,66.9,29.1,24,29.73,10.0,North,9.2,16.1,N/A,,Partly Cloudy,350,2013-05-07 19:56:00
2:56 PM,68.0,22.1,18,29.73,10.0,North,8.1,17.3,N/A,,Mostly Cloudy,360,2013-05-07 20:56:00
4:04 PM,55.4,39.2,54,29.95,10.0,SSW,29.9,38.0,N/A,,Mostly Cloudy,200,2013-05-07 22:04:00
4:56 PM,55.9,39.9,55,29.85,10.0,South,18.4,-,N/A,,Mostly Cloudy,190,2013-05-07 22:56:00
5:56 PM,55.9,38.8,53,29.86,10.0,South,12.7,-,N/A,,Mostly Cloudy,180,2013-05-07 23:56:00
6:56 PM,56.8,37.9,49,29.86,10.0,South,10.4,-,N/A,,Clear,180,2013-05-08 00:56:00
7:56 PM,55.9,36.9,49,29.86,10.0,Calm,Calm,-,N/A,,Mostly Cloudy,0,2013-05-08 01:56:00
8:19 PM,51.8,42.8,71,30.03,10.0,North,15.0,-,0.00,Rain,Light Rain,360,2013-05-08 02:19:00
8:56 PM,48.9,41.9,77,29.89,10.0,NE,6.9,-,0.00,,Partly Cloudy,40,2013-05-08 02:56:00
9:56 PM,48.9,43.0,80,29.89,10.0,Calm,Calm,-,0.00,,Mostly Cloudy,0,2013-05-08 03:56:00
10:56 PM,43.9,41.0,90,29.91,10.0,WNW,3.5,-,0.00,,Partly Cloudy,290,2013-05-08 04:56:00
11:56 PM,41.0,37.9,89,29.91,10.0,SE,3.5,-,N/A,,Clear,130,2013-05-08 05:56:00